Weather History for KFET - January, 2014

Change the Weather History Date:

Saturday, January 4, 2014

  Actual Average Record
Temperature  
Mean Temperature 22 °F -  
Max Temperature 38 °F 28 °F 57 °F (2012)
Min Temperature 7 °F 10 °F -19 °F (1969)
Degree Days  
Heating Degree Days 42    
Moisture  
Dew Point 16 °F    
Average Humidity 79    
Maximum Humidity 93    
Minimum Humidity 71    
Precipitation  
Precipitation 0.00 in - - ()
Sea Level Pressure  
Sea Level Pressure 29.98 in    
Wind  
Wind Speed 11 mph (NNW)    
Max Wind Speed 31 mph    
Max Gust Speed 39 mph    
Visibility 10 miles    
Events      
Averages and records for this station are not official NWS values.
T = Trace of Precipitation, MM = Missing Value Source: NWS Daily Summary

Daily Weather History Graph

Daily Weather History Graph

Search for Another Location

Airport or City:

Trip Planner

Search our weather history database for the weather conditions in past years. The results will help you decide how hot, cold, wet, or windy it might be!

Date:

Astronomy

Jan. 04, 2014 Rise Set
Actual Time 7:52 AM CST 5:09 PM CST
Civil Twilight 7:21 AM CST 5:41 PM CST
Nautical Twilight 6:46 AM CST 6:15 PM CST
Astronomical Twilight 6:13 AM CST 6:49 PM CST
Moon 9:55 AM CST (1/4) 9:34 PM CST (1/4)
Length of Visible Light 10h 19m
Length of Day
9h 17m
Waxing Crescent, 15% of the Moon is Illuminated
Jan 4
Waxing Crescent
Jan 7
First Quarter
Jan 15
Full
Jan 23
Last Quarter
Jan 30
New

Hourly Weather History & Observations

Time (CST) Temp. Windchill Dew Point Humidity Pressure Visibility Wind Dir Wind Speed Gust Speed Precip Events Conditions
12:15 AM 35.6 °F 30.7 °F 30.6 °F 82% 29.61 in 10.0 mi SW 5.8 mph - N/A   Clear
12:35 AM 35.6 °F - 30.7 °F 82% 29.61 in 10.0 mi Calm Calm - N/A   Clear
12:55 AM 35.6 °F 29.2 °F 30.7 °F 82% 29.62 in 10.0 mi SW 8.1 mph - N/A   Clear
1:15 AM 35.8 °F 31.9 °F 30.9 °F 82% 29.62 in 10.0 mi WSW 4.6 mph - N/A   Scattered Clouds
1:35 AM 35.8 °F 30.9 °F 31.5 °F 84% 29.64 in 10.0 mi West 5.8 mph - N/A   Mostly Cloudy
1:55 AM 36.0 °F 32.1 °F 31.5 °F 84% 29.64 in 10.0 mi West 4.6 mph - N/A   Mostly Cloudy
2:15 AM 34.2 °F - 31.6 °F 90% 29.64 in 10.0 mi Calm Calm - N/A   Scattered Clouds
2:35 AM 33.1 °F - 31.1 °F 92% 29.65 in 10.0 mi Calm Calm - N/A   Scattered Clouds
2:55 AM 33.3 °F - 31.1 °F 92% 29.65 in 10.0 mi Calm Calm - N/A   Scattered Clouds
3:15 AM 33.1 °F - 30.9 °F 92% 29.66 in 10.0 mi Calm Calm - N/A   Scattered Clouds
3:35 AM 32.5 °F - 30.7 °F 93% 29.67 in 10.0 mi Calm Calm - N/A   Clear
3:55 AM 32.0 °F 25.6 °F 30.2 °F 93% 29.69 in 10.0 mi West 6.9 mph - N/A   Clear
4:15 AM 33.6 °F 24.6 °F 31.8 °F 93% 29.72 in 10.0 mi West 12.7 mph - N/A   Clear
4:35 AM 34.0 °F 25.5 °F 32.0 °F 92% 29.72 in 10.0 mi WNW 11.5 mph - N/A   Clear
4:55 AM 38.3 °F 28.1 °F 32.0 °F 78% 29.74 in 10.0 mi NW 20.7 mph 27.6 mph N/A   Clear
5:15 AM 37.8 °F 28.6 °F 32.0 °F 80% 29.76 in 10.0 mi NW 16.1 mph - N/A   Clear
5:35 AM 36.3 °F 25.2 °F 32.2 °F 85% 29.77 in 10.0 mi NNW 21.9 mph 34.5 mph N/A   Mostly Cloudy
5:55 AM 32.0 °F 17.4 °F 28.6 °F 87% 29.80 in 10.0 mi NW 31.1 mph 39.1 mph N/A   Overcast
6:15 AM 30.4 °F 17.7 °F 26.8 °F 86% 29.83 in 10.0 mi NNW 20.7 mph 33.4 mph N/A   Overcast
6:35 AM 28.2 °F 12.5 °F 24.4 °F 86% 29.85 in 10.0 mi NW 29.9 mph 39.1 mph N/A   Overcast
6:55 AM 24.8 °F 9.3 °F 19.6 °F 81% 29.88 in 10.0 mi NNW 24.2 mph 31.1 mph N/A   Mostly Cloudy
7:15 AM 23.0 °F 7.2 °F 17.4 °F 79% 29.89 in 10.0 mi NNW 23.0 mph 32.2 mph N/A   Scattered Clouds
7:35 AM 22.1 °F 6.0 °F 16.7 °F 80% 29.91 in 10.0 mi NNW 23.0 mph 28.8 mph N/A   Scattered Clouds
7:55 AM 21.6 °F 10.6 °F 16.9 °F 82% 29.91 in 10.0 mi NNW 10.4 mph 23.0 mph N/A   Scattered Clouds
8:15 AM 19.6 °F 3.9 °F 14.4 °F 80% 29.93 in 10.0 mi NNW 19.6 mph 28.8 mph N/A   Mostly Cloudy
8:35 AM 18.5 °F 3.3 °F 13.1 °F 79% 29.94 in 10.0 mi NNW 17.3 mph 25.3 mph N/A   Mostly Cloudy
8:55 AM 18.3 °F 4.1 °F 13.1 °F 80% 29.95 in 10.0 mi NNW 15.0 mph 23.0 mph N/A   Scattered Clouds
9:15 AM 18.1 °F 7.9 °F 13.1 °F 81% 29.96 in 10.0 mi North 8.1 mph 18.4 mph N/A   Scattered Clouds
9:35 AM 17.8 °F 2.9 °F 12.4 °F 79% 29.98 in 10.0 mi North 16.1 mph 25.3 mph N/A   Scattered Clouds
9:55 AM 17.4 °F 1.5 °F 11.1 °F 76% 29.99 in 10.0 mi NNW 18.4 mph 27.6 mph N/A   Scattered Clouds
10:15 AM 17.1 °F 1.5 °F 10.8 °F 76% 30.03 in 10.0 mi NNW 17.3 mph 24.2 mph N/A   Scattered Clouds
10:35 AM 17.2 °F 1.7 °F 10.9 °F 76% 30.04 in 10.0 mi NNW 17.3 mph 26.5 mph N/A   Scattered Clouds
10:55 AM 17.1 °F 1.5 °F 10.9 °F 77% 30.05 in 10.0 mi NNW 17.3 mph 24.2 mph N/A   Scattered Clouds
11:15 AM 16.7 °F 1.0 °F 10.4 °F 76% 30.05 in 10.0 mi NNW 17.3 mph 24.2 mph N/A   Scattered Clouds
11:35 AM 16.7 °F 0.1 °F 10.6 °F 77% 30.06 in 10.0 mi NNW 19.6 mph 25.3 mph N/A   Scattered Clouds
11:55 AM 16.5 °F 0.8 °F 10.4 °F 77% 30.04 in 10.0 mi NNW 17.3 mph 23.0 mph N/A   Clear
12:15 PM 17.1 °F 0.1 °F 10.0 °F 74% 30.04 in 10.0 mi NNW 20.7 mph 25.3 mph N/A   Clear
12:35 PM 17.2 °F 2.2 °F 9.7 °F 72% 30.04 in 10.0 mi NNW 16.1 mph 23.0 mph N/A   Clear
12:55 PM 17.2 °F 3.9 °F 9.7 °F 72% 30.04 in 10.0 mi NNW 12.7 mph 27.6 mph N/A   Clear
1:15 PM 17.4 °F 4.1 °F 9.9 °F 72% 30.01 in 10.0 mi North 12.7 mph 23.0 mph N/A   Clear
1:35 PM 17.4 °F 3.5 °F 9.7 °F 72% 30.03 in 10.0 mi NNW 13.8 mph 24.2 mph N/A   Clear
1:55 PM 17.6 °F 3.7 °F 10.2 °F 73% 30.04 in 10.0 mi North 13.8 mph 23.0 mph N/A   Clear
2:15 PM 18.3 °F 4.1 °F 10.8 °F 72% 30.04 in 10.0 mi NNW 15.0 mph 23.0 mph N/A   Clear
2:35 PM 18.1 °F 5.0 °F 10.0 °F 71% 30.06 in 10.0 mi NNW 12.7 mph 21.9 mph N/A   Clear
2:55 PM 18.3 °F 2.6 °F 10.2 °F 71% 30.07 in 10.0 mi NNW 18.4 mph 21.9 mph N/A   Clear
3:15 PM 18.5 °F 4.9 °F 10.8 °F 72% 30.06 in 10.0 mi North 13.8 mph 23.0 mph N/A   Clear
3:35 PM 18.7 °F 4.6 °F 11.1 °F 72% 30.07 in 10.0 mi North 15.0 mph 21.9 mph N/A   Clear
3:55 PM 18.9 °F 5.3 °F 11.5 °F 73% 30.07 in 10.0 mi North 13.8 mph 20.7 mph N/A   Clear
4:15 PM 19.0 °F 7.5 °F 12.0 °F 74% 30.08 in 10.0 mi North 10.4 mph 18.4 mph N/A   Clear
4:35 PM 19.0 °F 6.8 °F 12.2 °F 75% 30.08 in 10.0 mi North 11.5 mph 19.6 mph N/A   Clear
4:55 PM 18.5 °F 4.9 °F 11.8 °F 75% 30.09 in 10.0 mi North 13.8 mph 20.7 mph N/A   Clear
5:15 PM 18.3 °F 7.3 °F 12.0 °F 76% 30.10 in 10.0 mi North 9.2 mph 18.4 mph N/A   Clear
5:35 PM 18.1 °F 7.1 °F 12.2 °F 78% 30.12 in 10.0 mi North 9.2 mph 16.1 mph N/A   Clear
5:55 PM 18.1 °F 5.6 °F 12.4 °F 78% 30.13 in 10.0 mi North 11.5 mph 17.3 mph N/A   Clear
6:15 PM 17.6 °F 5.0 °F 12.2 °F 79% 30.12 in 10.0 mi NNW 11.5 mph 19.6 mph N/A   Scattered Clouds
6:35 PM 17.1 °F 4.3 °F 11.3 °F 78% 30.13 in 10.0 mi North 11.5 mph 19.6 mph N/A   Clear
6:55 PM 16.3 °F 4.9 °F 11.1 °F 80% 30.14 in 10.0 mi North 9.2 mph 17.3 mph N/A   Clear
7:15 PM 15.8 °F 2.1 °F 10.8 °F 80% 30.15 in 10.0 mi North 12.7 mph 24.2 mph N/A   Clear
7:35 PM 15.6 °F 0.6 °F 10.9 °F 82% 30.16 in 10.0 mi NNW 15.0 mph 23.0 mph N/A   Clear
7:55 PM 14.7 °F -0.5 °F 9.3 °F 79% 30.16 in 10.0 mi North 15.0 mph 24.2 mph N/A   Clear
8:15 PM 14.0 °F -0.2 °F 8.4 °F 78% 30.18 in 10.0 mi North 12.7 mph 24.2 mph N/A   Clear
8:35 PM 13.1 °F -2.6 °F 7.5 °F 78% 30.20 in 10.0 mi NNW 15.0 mph 25.3 mph N/A   Clear
8:55 PM 12.2 °F -1.8 °F 6.6 °F 78% 30.20 in 10.0 mi NNW 11.5 mph 23.0 mph N/A   Clear
9:15 PM 11.5 °F -4.1 °F 6.1 °F 79% 30.21 in 10.0 mi NNW 13.8 mph 24.2 mph N/A   Clear
9:35 PM 10.9 °F -4.7 °F 5.2 °F 78% 30.22 in 10.0 mi NNW 13.8 mph 19.6 mph N/A   Clear
9:55 PM 10.2 °F -7.4 °F 4.6 °F 78% 30.22 in 10.0 mi NNW 17.3 mph 21.9 mph N/A   Clear
10:15 PM 9.3 °F -6.1 °F 3.7 °F 78% 30.23 in 10.0 mi NNW 12.7 mph 21.9 mph N/A   Clear
10:35 PM 8.6 °F -8.3 °F 2.8 °F 77% 30.24 in 10.0 mi NNW 15.0 mph 23.0 mph N/A   Clear
10:55 PM 8.1 °F -8.4 °F 2.3 °F 77% 30.25 in 10.0 mi NNW 13.8 mph 20.7 mph N/A   Clear
11:15 PM 7.7 °F -7.4 °F 1.6 °F 76% 30.26 in 10.0 mi NNW 11.5 mph 19.6 mph N/A   Clear
11:35 PM 7.5 °F -9.1 °F 1.0 °F 75% 30.25 in 10.0 mi North 13.8 mph 19.6 mph N/A   Clear
11:55 PM 7.2 °F -10.2 °F 1.2 °F 77% 30.25 in 10.0 mi NNW 15.0 mph 20.7 mph N/A   Clear